CW2927 Weather Reports


Display with metric or nautical units.
time (UTC)temp
F
wind
direction
speed
MPH
gust
MPH
rain 1hr
in
rain 24hr
in
rain mn
in
humidity
%
barometer
mb
20260502152205 48 251 3.0 8.0 0.00 0.00 0.00 68 1011.3
20260502150704 48 270 2.0 3.0 0.00 0.00 0.00 69 1011.4
20260502150204 48 272 4.0 8.0 0.00 0.00 0.00 69 1011.5
20260502130704 41 66 1.0 3.0 0.00 0.00 0.00 75 1012.0
20260502130204 41 66 0.0 3.0 0.00 0.00 0.00 74 1012.0
20260502122704 39 66 0.0 3.0 0.00 0.00 0.00 75 1012.0
20260502122204 39 65 2.0 3.0 0.00 0.00 0.00 74 1011.9
20260502120704 38 65 2.0 3.0 0.00 0.00 0.00 74 1011.9
20260502120204 38 65 2.0 3.0 0.00 0.00 0.00 74 1011.9
20260502114705 38 65 2.0 3.0 0.00 0.00 0.00 74 1011.9
20260502112704 37 65 2.0 3.0 0.00 0.00 0.00 75 1011.9
20260502112204 37 65 2.0 5.0 0.00 0.00 0.00 76 1011.9
20260502110704 36 65 2.0 3.0 0.00 0.00 0.00 78 1011.9
20260502110204 36 65 1.0 3.0 0.00 0.00 0.00 78 1011.9
20260502104704 36 65 2.0 3.0 0.00 0.00 0.00 77 1011.9
20260502104204 36 63 2.0 5.0 0.00 0.00 0.00 76 1011.8
20260502102704 36 63 1.0 2.0 0.00 0.00 0.00 75 1011.9
20260502102204 36 63 1.0 5.0 0.00 0.00 0.00 75 1011.9
20260502100203 36 63 3.0 5.0 0.00 0.00 0.00 74 1011.6
20260502090703 35 65 2.0 5.0 0.00 0.00 0.00 79 1011.4
20260502090203 35 66 2.0 7.0 0.00 0.00 0.00 79 1011.4
20260502070705 36 63 1.0 3.0 0.00 0.00 0.00 77 1011.3
20260502070205 36 63 1.0 3.0 0.00 0.00 0.00 77 1011.3
20260502064705 36 63 1.0 3.0 0.00 0.00 0.00 77 1011.2
20260502062705 36 63 1.0 3.0 0.00 0.00 0.00 76 1011.2
20260502062205 37 63 2.0 3.0 0.00 0.00 0.00 76 1011.2
20260502060206 37 61 1.0 2.0 0.00 0.00 0.00 76 1011.2
20260502054204 37 62 1.0 5.0 0.00 0.00 0.00 74 1011.2
20260502052705 38 62 2.0 3.0 0.00 0.00 0.00 73 1011.2
20260502052205 38 62 2.0 3.0 0.00 0.00 0.00 72 1011.1
20260502050705 39 61 2.0 3.0 0.00 0.00 0.00 72 1011.1
20260502050205 39 61 2.0 8.0 0.00 0.00 0.00 71 1011.1
20260502044705 39 69 1.0 3.0 0.00 0.00 0.00 72 1011.0
20260502044204 39 68 2.0 8.0 0.00 0.00 0.00 71 1011.1
20260502042705 39 71 2.0 5.0 0.00 0.00 0.00 72 1011.1
20260502042205 39 71 2.0 3.0 0.00 0.00 0.00 73 1011.1
20260502040705 39 72 2.0 3.0 0.00 0.00 0.00 73 1011.2
20260502040205 39 72 2.0 3.0 0.00 0.00 0.00 73 1011.2
20260502034705 39 72 1.0 3.0 0.00 0.00 0.00 72 1011.2
20260502034205 39 72 1.0 3.0 0.00 0.00 0.00 71 1011.1
20260502032704 40 72 2.0 3.0 0.00 0.00 0.00 70 1011.0
20260502032205 40 72 1.0 3.0 0.00 0.00 0.00 69 1011.1
20260502030707 41 72 2.0 3.0 0.00 0.00 0.00 68 1011.1
20260502030205 41 71 3.0 7.0 0.00 0.00 0.00 68 1011.0
20260502024705 41 71 3.0 5.0 0.00 0.00 0.00 67 1011.0
20260502024205 42 72 3.0 5.0 0.00 0.00 0.00 67 1011.0
20260502022705 42 71 2.0 3.0 0.00 0.00 0.00 66 1011.0
20260502022205 42 71 2.0 5.0 0.00 0.00 0.00 65 1011.1
20260502020705 43 67 2.0 3.0 0.00 0.00 0.00 64 1011.0
20260502020205 43 66 2.0 3.0 0.00 0.00 0.00 64 1011.0
20260502014705 44 65 2.0 5.0 0.00 0.00 0.00 63 1011.1
20260502014205 44 65 2.0 3.0 0.00 0.00 0.00 62 1011.1
20260502012705 45 65 3.0 5.0 0.00 0.00 0.00 60 1011.0
20260502012205 45 64 3.0 7.0 0.00 0.00 0.00 60 1011.0
20260502010704 46 61 3.0 5.0 0.00 0.00 0.00 59 1010.8
20260502010204 46 33 2.0 3.0 0.00 0.00 0.00 60 1010.8
20260502004704 46 32 1.0 3.0 0.00 0.00 0.00 57 1010.7
20260502004205 46 32 1.0 3.0 0.00 0.00 0.00 57 1010.7
20260502002705 47 31 2.0 3.0 0.00 0.01 0.00 56 1010.5
20260502002205 47 31 1.0 3.0 0.00 0.01 0.00 57 1010.5
20260502000704 47 31 1.0 3.0 0.00 0.02 0.00 56 1010.4
20260502000205 47 31 2.0 3.0 0.00 0.02 0.00 56 1010.4
20260501234704 47 30 2.0 3.0 0.00 0.03 0.00 55 1010.2
20260501234204 47 30 2.0 5.0 0.00 0.03 0.00 55 1010.2
20260501232705 48 5 3.0 5.0 0.00 0.03 0.00 54 1009.9
20260501232205 48 5 2.0 6.0 0.00 0.03 0.00 53 1009.9
20260501230704 48 305 2.0 5.0 0.00 0.03 0.00 53 1009.9
20260501230205 48 292 3.0 3.0 0.00 0.03 0.00 54 1009.9
20260501224705 49 289 1.0 3.0 0.00 0.03 0.00 54 1009.8
20260501224205 49 289 3.0 6.0 0.00 0.03 0.00 53 1009.9
20260501222704 49 291 2.0 3.0 0.00 0.03 0.00 52 1009.8
20260501222205 49 291 2.0 6.0 0.00 0.03 0.00 51 1009.7
20260501220705 51 304 3.0 5.0 0.00 0.03 0.00 50 1009.8
20260501214705 50 257 4.0 6.0 0.00 0.03 0.00 50 1009.9
20260501214205 50 290 5.0 9.0 0.00 0.03 0.00 50 1009.8
20260501212704 50 292 6.0 10.0 0.00 0.03 0.00 50 1009.8
20260501212204 51 273 2.0 13.0 0.00 0.03 0.00 51 1009.7
20260501210704 52 281 3.0 6.0 0.00 0.03 0.00 48 1009.7
20260501210205 53 290 5.0 12.0 0.00 0.03 0.00 48 1009.6
20260501204704 53 301 5.0 7.0 0.00 0.03 0.00 49 1009.6
20260501204205 52 289 3.0 9.0 0.00 0.03 0.00 49 1009.7
20260501202705 51 288 4.0 12.0 0.00 0.03 0.00 53 1009.7
20260501202205 50 293 4.0 9.0 0.00 0.03 0.00 51 1009.7
20260501200704 50 292 5.0 8.0 0.00 0.03 0.00 52 1009.7
20260501200205 50 295 3.0 9.0 0.00 0.03 0.00 53 1009.7
20260501194704 50 296 4.0 7.0 0.00 0.03 0.00 52 1009.7
20260501194204 51 303 5.0 10.0 0.00 0.03 0.00 51 1009.7
20260501192704 50 299 6.0 14.0 0.00 0.03 0.00 52 1009.7
20260501192205 50 317 4.0 13.0 0.00 0.03 0.00 54 1009.7
20260501190704 50 272 5.0 14.0 0.00 0.03 0.00 54 1009.8
20260501190204 49 282 2.0 13.0 0.00 0.03 0.00 57 1009.9
20260501184705 48 274 4.0 13.0 0.00 0.03 0.00 56 1009.9
20260501184204 48 271 3.0 13.0 0.00 0.03 0.00 57 1009.9
20260501182705 48 267 5.0 7.0 0.00 0.03 0.00 56 1009.8
20260501182204 48 259 5.0 16.0 0.00 0.03 0.00 56 1010.0
20260501180704 47 286 5.0 9.0 0.00 0.03 0.00 59 1010.0
20260501180205 47 301 4.0 13.0 0.00 0.03 0.00 60 1010.0
20260501174704 46 316 4.0 8.0 0.00 0.03 0.00 61 1010.1
20260501174205 46 286 3.0 17.0 0.00 0.03 0.00 63 1010.1
20260501172705 45 254 3.0 7.0 0.00 0.03 0.00 63 1010.1
20260501170704 44 271 3.0 7.0 0.00 0.03 0.00 66 1010.3
20260501170204 44 296 5.0 14.0 0.00 0.03 0.00 66 1010.2
20260501164704 44 254 3.0 6.0 0.00 0.03 0.00 67 1010.3
20260501164204 44 220 3.0 10.0 0.00 0.03 0.00 67 1010.4
20260501162704 44 295 5.0 9.0 0.00 0.03 0.00 66 1010.3
20260501162205 43 287 5.0 13.0 0.00 0.03 0.00 66 1010.4
20260501160704 43 270 6.0 16.0 0.00 0.03 0.00 66 1010.5
20260501160204 43 277 5.0 17.0 0.00 0.03 0.00 66 1010.4